sat.trackr.live / text

‹ back to catalog

GEESAT-5 08

NORAD 65557 · 2025-201H

PAYLOAD ACTIVE UNKNOWN

§ Identity

Operator
Country
PRC
Launch date
2025-09-08
Launch site
YSLA
Launch vehicle
Mass (kg)
RCS (m²)

External: N2YO · Heavens-Above · Gunter

§ Orbital elements

Epoch: 2026-09-20T10:21:40.004928Z

Period
97.01 min
Inclination
49.9778°
Eccentricity
0.0007775
Mean motion
14.84389548 rev/d
Perigee alt
610.1 km
Apogee alt
620.9 km
Semi-major
6,993.6 km
B*
1.2804e-4
RAAN
316.2337°
Arg perigee
274.3447°
Mean anomaly
85.6603°
Rev number
5,596

§ Raw data

GEESAT-5 081 65557U 25201H   26263.43171302  .00000859  00000+0  12804-3 0  99972 65557  49.9778 316.2337 0007775 274.3447  85.6603 14.84389548 55963

JSON: /api/v1/satellites/65557 · /tle

For live sub-satellite position, see the globe view (requires WebGL).

§ Visibility from observer

Set your observer location to see the next 7 days of passes ≥ 10°. The values pass through the URL so the page stays shareable.

No JS? Fill the form by hand. The geolocation button needs JavaScript.